This is the latest recevied weather packets stored in our database for station/object K2RMB. If no packets are shown the sender has not sent any weather packets the latest 10 day(s).
| Time | Temp. | Humidity | Pressure | Rain* | Wind** | Luminosity | Snow |
|---|---|---|---|---|---|---|---|
| 1777634123 | 5° C | 83% | 1011.8 hPa | 0 mm | - | 62 W/m² | - |
| 1777633820 | 5° C | 82% | 1011.8 hPa | 0 mm | - | 56 W/m² | - |
| 1777633518 | 5° C | 83% | 1012.1 hPa | 0 mm | - | 74 W/m² | - |
| 1777633215 | 5° C | 83% | 1011.8 hPa | 0 mm | - | 80 W/m² | - |
| 1777632913 | 5° C | 84% | 1011.8 hPa | 0 mm | - | 48 W/m² | - |
| 1777632608 | 5° C | 83% | 1011.8 hPa | 0 mm | - | 59 W/m² | - |
| 1777632306 | 5° C | 83% | 1011.8 hPa | 0 mm | - | 37 W/m² | - |
| 1777632002 | 5° C | 84% | 1011.8 hPa | 0 mm | - | 26 W/m² | - |
| 1777631701 | 5° C | 84% | 1011.8 hPa | 0 mm | - | 24 W/m² | - |
| 1777631397 | 5° C | 83% | 1011.8 hPa | 0 mm | - | 17 W/m² | - |
| 1777631094 | 5° C | 84% | 1011.8 hPa | 0 mm | - | 16 W/m² | - |
| 1777630791 | 5° C | 83% | 1011.8 hPa | 0 mm | - | 12 W/m² | - |
| 1777630487 | 5° C | 85% | 1011.5 hPa | 0 mm | - | 10 W/m² | - |
| 1777630184 | 5° C | 85% | 1011.5 hPa | 0 mm | - | 9 W/m² | - |
| 1777629883 | 5° C | 84% | 1011.8 hPa | 0 mm | - | 5 W/m² | - |
| 1777629579 | 5° C | 85% | 1011.5 hPa | 0 mm | - | 5 W/m² | - |
| 1777629276 | 5° C | 84% | 1011.1 hPa | 0 mm | - | 3 W/m² | - |
| 1777628971 | 5° C | 86% | 1011.1 hPa | 0 mm | - | 2 W/m² | - |
| 1777628668 | 5° C | 85% | 1011.1 hPa | 0 mm | - | 1 W/m² | - |
| 1777628365 | 5° C | 87% | 1011.1 hPa | 0 mm | - | 1 W/m² | - |
| 1777628060 | 5° C | 87% | 1011.1 hPa | 0 mm | - | 0 W/m² | - |
| 1777627760 | 5° C | 87% | 1010.8 hPa | 0 mm | - | 0 W/m² | - |
| 1777627460 | 5° C | 87% | 1011.1 hPa | 0 mm | - | 0 W/m² | - |
| 1777627156 | 5° C | 87% | 1011.1 hPa | 0 mm | - | 0 W/m² | - |
| 1777626853 | 5° C | 86% | 1010.8 hPa | 0 mm | - | 0 W/m² | - |
* Rain latest hour (hover to see other rain measurements)
** Current wind speed in m/s (hover to see current wind gust speed)